GW5129 Weather Reports


time (UTC)temp
C
wind
direction
speed
KPH
gust
KPH
rain 1hr
cm
rain 24hr
cm
rain mn
cm
humidity
%
barometer
mb
20260504042146 10 164 0.0 0.0 0.00 0.00 0.00 69 1016.2
20260504041642 10 164 0.0 0.0 0.00 0.00 0.00 69 1016.0
20260504041138 10 164 0.0 0.0 0.00 0.00 0.00 69 1016.0
20260504040635 10 164 0.0 0.0 0.00 0.00 0.00 67 1016.2
20260504040132 10 164 0.0 0.0 0.00 0.00 0.00 66 1016.1
20260504035629 11 164 0.0 0.0 0.00 0.00 0.00 65 1016.1
20260504035125 11 164 0.0 0.0 0.00 0.00 0.00 63 1016.4
20260504034624 11 164 0.0 0.0 0.00 0.00 0.00 61 1016.1
20260504034120 11 164 0.0 1.6 0.00 0.00 0.00 61 1016.3
20260504033618 11 149 0.0 1.6 0.00 0.00 0.00 59 1016.3
20260504033115 11 141 0.0 1.6 0.00 0.00 0.00 60 1016.2
20260504032612 11 131 1.6 3.2 0.00 0.00 0.00 61 1016.3
20260504032109 11 140 0.0 1.6 0.00 0.00 0.00 63 1016.3
20260504031606 10 128 0.0 3.2 0.00 0.00 0.00 66 1016.4
20260504031102 10 65 0.0 0.0 0.00 0.00 0.00 69 1016.4
20260504030559 10 65 0.0 0.0 0.00 0.00 0.00 69 1016.2
20260504030055 10 60 0.0 0.0 0.00 0.00 0.00 69 1016.3
20260504025553 10 60 0.0 0.0 0.00 0.00 0.00 67 1016.1
20260504025049 10 60 0.0 0.0 0.00 0.00 0.00 67 1016.3
20260504024547 10 60 0.0 1.6 0.00 0.00 0.00 66 1016.2
20260504024043 10 60 0.0 0.0 0.00 0.00 0.00 67 1016.5
20260504023540 9 60 0.0 0.0 0.00 0.00 0.00 66 1016.2
20260504023036 9 60 0.0 0.0 0.00 0.00 0.00 66 1016.4
20260504022532 9 60 0.0 0.0 0.00 0.00 0.00 66 1016.4
20260504022028 9 60 1.6 1.6 0.00 0.00 0.00 66 1016.4
20260504021526 8 60 0.0 0.0 0.00 0.00 0.00 65 1016.2
20260504021023 9 60 0.0 0.0 0.00 0.00 0.00 64 1016.4
20260504020520 9 60 0.0 0.0 0.00 0.00 0.00 64 1016.4
20260504020016 9 60 0.0 0.0 0.00 0.00 0.00 64 1016.3
20260504015512 9 60 0.0 0.0 0.00 0.00 0.00 64 1016.3
20260504015008 9 60 0.0 1.6 0.00 0.00 0.00 64 1016.2
20260504014504 9 60 1.6 1.6 0.00 0.00 0.00 64 1016.2
20260504014002 9 60 0.0 0.0 0.00 0.00 0.00 62 1016.2
20260504013500 10 60 0.0 0.0 0.00 0.00 0.00 62 1016.1
20260504012955 10 60 1.6 1.6 0.00 0.00 0.00 60 1016.3
20260504012454 10 60 0.0 1.6 0.00 0.00 0.00 59 1016.2
20260504011952 10 60 0.0 1.6 0.00 0.00 0.00 58 1016.0
20260504011447 10 60 0.0 1.6 0.00 0.00 0.00 58 1016.1
20260504010944 10 61 1.6 3.2 0.00 0.00 0.00 58 1016.0
20260504010440 11 60 0.0 1.6 0.00 0.00 0.00 57 1016.1
20260504005936 11 60 1.6 3.2 0.00 0.00 0.00 56 1016.1
20260504005433 11 64 0.0 1.6 0.00 0.00 0.00 56 1016.1
20260504004930 11 64 1.6 1.6 0.00 0.00 0.00 56 1016.0
20260504004428 11 64 1.6 1.6 0.00 0.00 0.00 55 1016.0
20260504003925 11 64 0.0 1.6 0.00 0.00 0.00 54 1015.9
20260504003421 12 88 1.6 1.6 0.00 0.00 0.00 52 1015.7
20260504002918 12 104 0.0 0.0 0.00 0.00 0.00 49 1016.1
20260504002415 13 109 0.0 0.0 0.00 0.00 0.00 47 1015.9
20260504001912 13 109 1.6 1.6 0.00 0.00 0.00 45 1015.9
20260504001410 13 218 1.6 1.6 0.00 0.00 0.00 44 1016.2
20260504000906 13 238 0.0 1.6 0.00 0.00 0.00 42 1016.0
20260504000403 13 227 0.0 0.0 0.00 0.00 0.00 42 1016.0
20260503235901 14 225 1.6 4.8 0.00 0.00 0.00 40 1015.9
20260503235359 14 270 0.0 1.6 0.00 0.00 0.00 41 1016.0
20260503234855 14 237 0.0 1.6 0.00 0.00 0.00 40 1016.1
20260503234353 14 199 3.2 4.8 0.00 0.00 0.00 38 1016.0
20260503233851 15 234 0.0 0.0 0.00 0.00 0.00 38 1016.0
20260503233347 15 251 0.0 3.2 0.00 0.00 0.00 37 1016.0
20260503232843 15 101 1.6 4.8 0.00 0.00 0.00 37 1016.1
20260503232340 15 124 3.2 9.7 0.00 0.00 0.00 37 1016.1
20260503231839 15 264 1.6 4.8 0.00 0.00 0.00 38 1016.2
20260503231335 15 104 3.2 6.4 0.00 0.00 0.00 37 1016.1
20260503230831 15 231 4.8 11.3 0.00 0.00 0.00 37 1016.0
20260503230328 15 137 0.0 4.8 0.00 0.00 0.00 37 1016.4
20260503225826 15 176 4.8 4.8 0.00 0.00 0.00 37 1016.2
20260503225322 15 77 0.0 1.6 0.00 0.00 0.00 36 1016.3
20260503224818 15 201 6.4 9.7 0.00 0.00 0.00 37 1016.4
20260503224316 15 340 1.6 1.6 0.00 0.00 0.00 37 1016.3
20260503223813 15 91 1.6 4.8 0.00 0.00 0.00 36 1016.5
20260503223311 16 213 1.6 3.2 0.00 0.00 0.00 36 1016.4
20260503222806 16 232 3.2 4.8 0.00 0.00 0.00 36 1016.6
20260503222305 16 173 1.6 3.2 0.00 0.00 0.00 36 1016.3
20260503221803 16 88 0.0 3.2 0.00 0.00 0.00 38 1016.5
20260503221301 16 105 0.0 6.4 0.00 0.00 0.00 36 1016.4
20260503220756 15 249 4.8 12.9 0.00 0.00 0.00 36 1016.4
20260503220254 15 76 6.4 9.7 0.00 0.00 0.00 36 1016.4
20260503215750 16 180 3.2 9.7 0.00 0.00 0.00 35 1016.6
20260503215247 16 103 1.6 6.4 0.00 0.00 0.00 36 1016.4
20260503214746 16 73 6.4 14.5 0.00 0.00 0.00 36 1016.6
20260503214242 15 116 1.6 14.5 0.00 0.00 0.00 36 1016.6
20260503213740 16 241 3.2 9.7 0.00 0.00 0.00 37 1016.5
20260503213237 16 212 6.4 9.7 0.00 0.00 0.00 36 1016.5
20260503212734 15 164 3.2 14.5 0.00 0.00 0.00 35 1016.6
20260503212232 16 108 8.0 16.1 0.00 0.00 0.00 35 1016.6
20260503211729 16 218 0.0 9.7 0.00 0.00 0.00 36 1016.4
20260503211225 15 116 3.2 6.4 0.00 0.00 0.00 37 1016.4
20260503210720 16 143 8.0 11.3 0.00 0.00 0.00 34 1016.5
20260503210219 16 157 1.6 11.3 0.00 0.00 0.00 35 1016.5
20260503205714 16 234 3.2 9.7 0.00 0.00 0.00 36 1016.3
20260503205210 16 230 1.6 11.3 0.00 0.00 0.00 37 1016.4
20260503204706 15 15 3.2 4.8 0.00 0.00 0.00 37 1016.4
20260503204204 16 248 3.2 11.3 0.00 0.00 0.00 34 1016.5
20260503203701 16 226 3.2 6.4 0.00 0.00 0.00 36 1016.8
20260503203159 15 167 8.0 11.3 0.00 0.00 0.00 36 1016.9
20260503202655 15 138 3.2 4.8 0.00 0.00 0.00 37 1017.1
20260503202154 16 152 6.4 9.7 0.00 0.00 0.00 37 1017.1
20260503201652 15 116 6.4 11.3 0.00 0.00 0.00 38 1017.2
20260503201149 15 197 6.4 14.5 0.00 0.00 0.00 36 1017.2
20260503200644 15 102 6.4 9.7 0.00 0.00 0.00 36 1017.3
20260503200141 16 131 14.5 17.7 0.00 0.00 0.00 39 1017.5
20260503195638 15 171 3.2 3.2 0.00 0.00 0.00 40 1017.6
20260503195135 15 175 6.4 16.1 0.00 0.00 0.00 38 1017.6
20260503194632 15 143 6.4 11.3 0.00 0.00 0.00 38 1017.8
20260503194127 15 357 3.2 3.2 0.00 0.00 0.00 39 1017.6
20260503193624 15 313 3.2 4.8 0.00 0.00 0.00 41 1017.8
20260503193120 15 151 6.4 9.7 0.00 0.00 0.00 38 1018.1
20260503192616 15 82 1.6 6.4 0.00 0.00 0.00 37 1018.0
20260503192112 16 336 3.2 14.5 0.00 0.00 0.00 38 1018.0
20260503191609 15 225 3.2 4.8 0.00 0.00 0.00 37 1018.0
20260503191105 16 349 3.2 11.3 0.00 0.00 0.00 38 1018.1
20260503190603 16 16 4.8 6.4 0.00 0.00 0.00 38 1018.3
20260503190100 15 170 6.4 9.7 0.00 0.00 0.00 37 1018.4
20260503185556 16 330 4.8 6.4 0.00 0.00 0.00 40 1018.6
20260503185056 15 142 3.2 9.7 0.00 0.00 0.00 39 1018.6
20260503184552 15 102 1.6 11.3 0.00 0.00 0.00 40 1018.6
20260503184049 15 275 6.4 22.5 0.00 0.00 0.00 38 1018.6
20260503183545 15 45 3.2 12.9 0.00 0.00 0.00 39 1018.8
20260503183043 14 127 3.2 9.7 0.00 0.00 0.00 39 1019.0
20260503182541 15 94 8.0 12.9 0.00 0.00 0.00 41 1019.0
20260503182039 13 87 8.0 11.3 0.00 0.00 0.00 41 1018.9
20260503181535 13 145 0.0 3.2 0.00 0.00 0.00 42 1018.9
20260503181032 14 329 3.2 9.7 0.00 0.00 0.00 42 1018.8
20260503180529 14 211 4.8 12.9 0.00 0.00 0.00 40 1018.9
20260503180026 15 334 6.4 9.7 0.00 0.00 0.00 39 1018.9
20260503175524 15 104 3.2 4.8 0.00 0.00 0.00 40 1018.9
20260503175020 13 297 3.2 6.4 0.00 0.00 0.00 42 1019.1
20260503174518 13 313 0.0 1.6 0.00 0.00 0.00 46 1019.2
20260503174014 13 249 3.2 9.7 0.00 0.00 0.00 43 1019.2
20260503173509 14 163 8.0 11.3 0.00 0.00 0.00 43 1019.1
20260503173006 13 54 1.6 4.8 0.00 0.00 0.00 42 1019.2
20260503172504 13 120 6.4 12.9 0.00 0.00 0.00 40 1019.3
20260503172001 13 241 6.4 14.5 0.00 0.00 0.00 40 1019.5
20260503171456 13 77 1.6 4.8 0.00 0.00 0.00 40 1019.5
20260503170954 13 333 1.6 1.6 0.00 0.00 0.00 40 1019.7
20260503170450 14 128 1.6 4.8 0.00 0.00 0.00 42 1019.9
20260503150843 11 160 6.4 9.7 0.00 0.00 0.00 45 1020.8
20260503150338 11 207 11.3 20.9 0.00 0.00 0.00 45 1020.7
20260503140303 10 55 1.6 6.4 0.00 0.00 0.00 57 1021.1
20260503131232 7 109 4.8 12.9 0.00 0.00 0.00 74 1021.2
20260503130730 7 111 8.0 11.3 0.00 0.00 0.00 76 1021.1
20260503130227 7 139 4.8 9.7 0.00 0.00 0.00 78 1021.3
20260503120153 3 125 1.6 6.4 0.00 0.00 0.00 94 1020.9
20260503110621 1 106 0.0 1.6 0.00 0.00 0.00 94 1020.5
20260503110118 1 112 0.0 1.6 0.00 0.00 0.00 94 1020.4
20260503090508 2 136 0.0 0.0 0.00 0.00 0.00 92 1020.0
20260503081434 2 97 0.0 0.0 0.00 0.00 0.00 92 1019.6
20260503080931 3 97 0.0 1.6 0.00 0.00 0.00 92 1019.5
20260503080427 3 97 0.0 1.6 0.00 0.00 0.00 92 1019.6
20260503072904 3 96 3.2 3.2 0.00 0.00 0.00 92 1019.3
20260503072401 3 94 0.0 0.0 0.00 0.00 0.00 92 1019.3
20260503071857 2 84 0.0 0.0 0.00 0.00 0.00 92 1019.3
20260503071355 2 72 0.0 1.6 0.00 0.00 0.00 92 1019.3
20260503070851 2 50 0.0 0.0 0.00 0.00 0.00 92 1019.2
20260503070349 2 50 0.0 0.0 0.00 0.00 0.00 92 1019.4
20260503060308 2 61 0.0 1.6 0.00 0.00 0.00 90 1019.7
20260503054756 2 64 1.6 3.2 0.00 0.00 0.00 90 1019.5
20260503054252 2 30 0.0 0.0 0.00 0.00 0.00 90 1019.5
20260503053750 3 30 0.0 0.0 0.00 0.00 0.00 89 1019.6
20260503053248 3 30 0.0 0.0 0.00 0.00 0.00 89 1019.6
20260503052744 3 30 0.0 0.0 0.00 0.00 0.00 89 1019.5
20260503052241 3 30 0.0 0.0 0.00 0.00 0.00 89 1019.6
20260503051735 3 30 0.0 0.0 0.00 0.00 0.00 89 1019.5
20260503051234 3 30 0.0 0.0 0.00 0.00 0.00 89 1019.5
20260503050730 3 30 0.0 0.0 0.00 0.00 0.00 89 1019.5
20260503050226 3 30 0.0 0.0 0.00 0.00 0.00 88 1019.6
20260503045724 3 30 0.0 0.0 0.00 0.00 0.00 88 1019.7
20260503045222 3 29 0.0 0.0 0.00 0.00 0.00 88 1019.7
20260503044718 3 19 0.0 0.0 0.00 0.00 0.00 88 1019.6
20260503044215 3 17 0.0 0.0 0.00 0.00 0.00 88 1019.6
20260503043712 3 17 0.0 0.0 0.00 0.00 0.00 88 1019.8
20260503043210 3 17 0.0 0.0 0.00 0.00 0.00 87 1019.6
20260503042705 3 17 0.0 0.0 0.00 0.00 0.00 87 1019.7